| time (UTC) | temp F | wind direction | speed MPH | gust MPH | rain 1hr in | rain 24hr in | rain mn in | humidity % | barometer mb |
| 20260903033054 | 57 | 148 | 2.0 | 7.0 | 0.00 | 0.19 | 0.19 | 91 | 1007.1 |
| 20260903031556 | 57 | 134 | 3.0 | 8.0 | 0.00 | 0.19 | 0.19 | 91 | 1007.1 |
| 20260903030054 | 57 | 132 | 5.0 | 12.0 | 0.00 | 0.19 | 0.19 | 91 | 1006.8 |
| 20260903024552 | 58 | 151 | 6.0 | 11.0 | 0.00 | 0.19 | 0.19 | 91 | 1006.5 |
| 20260903023052 | 58 | 143 | 3.0 | 5.0 | 0.00 | 0.19 | 0.19 | 89 | 1006.4 |
| 20260903021552 | 58 | 176 | 2.0 | 7.0 | 0.00 | 0.19 | 0.19 | 89 | 1006.3 |
| 20260903020051 | 58 | 118 | 3.0 | 9.0 | 0.01 | 0.19 | 0.19 | 88 | 1006.1 |
| 20260903014553 | 58 | 207 | 4.0 | 9.0 | 0.01 | 0.19 | 0.19 | 89 | 1006.1 |
| 20260903013049 | 58 | 220 | 5.0 | 13.0 | 0.01 | 0.19 | 0.19 | 91 | 1005.9 |
| 20260903011551 | 59 | 180 | 6.0 | 13.0 | 0.01 | 0.19 | 0.19 | 92 | 1006.0 |
| 20260903010048 | 59 | 265 | 3.0 | 11.0 | 0.04 | 0.18 | 0.18 | 94 | 1005.6 |
| 20260903004546 | 59 | 171 | 8.0 | 15.0 | 0.04 | 0.18 | 0.18 | 94 | 1005.3 |
| 20260903003044 | 59 | 163 | 4.0 | 19.0 | 0.04 | 0.18 | 0.18 | 93 | 1005.4 |
| 20260903001558 | 59 | 146 | 6.0 | 12.0 | 0.04 | 0.18 | 0.18 | 93 | 1005.2 |
| 20260903000042 | 60 | 200 | 1.0 | 3.0 | 0.00 | 0.14 | 0.14 | 93 | 1005.0 |
| 20260902234544 | 60 | 96 | 0.0 | 0.0 | 0.01 | 0.14 | 0.14 | 92 | 1004.8 |
| 20260902233039 | 60 | 60 | 0.0 | 2.0 | 0.04 | 0.14 | 0.14 | 92 | 1004.8 |
| 20260902231539 | 60 | 60 | 1.0 | 2.0 | 0.06 | 0.14 | 0.14 | 92 | 1004.7 |
| 20260902230039 | 60 | 60 | 1.0 | 5.0 | 0.07 | 0.14 | 0.14 | 91 | 1004.7 |
| 20260902224543 | 60 | 81 | 2.0 | 5.0 | 0.07 | 0.13 | 0.13 | 90 | 1004.8 |
| 20260902223036 | 60 | 69 | 3.0 | 5.0 | 0.05 | 0.10 | 0.10 | 89 | 1004.9 |
| 20260902221541 | 61 | 99 | 1.0 | 3.0 | 0.05 | 0.08 | 0.08 | 89 | 1004.9 |
| 20260902220044 | 61 | 104 | 2.0 | 4.0 | 0.04 | 0.07 | 0.07 | 88 | 1004.8 |
| 20260902214533 | 61 | 242 | 0.0 | 0.0 | 0.05 | 0.06 | 0.06 | 87 | 1004.9 |
| 20260902213036 | 61 | 243 | 0.0 | 2.0 | 0.04 | 0.05 | 0.05 | 86 | 1004.9 |
| 20260902211534 | 62 | 243 | 0.0 | 4.0 | 0.03 | 0.03 | 0.03 | 85 | 1005.0 |
| 20260902210032 | 62 | 247 | 1.0 | 5.0 | 0.03 | 0.03 | 0.03 | 83 | 1004.9 |
| 20260902204530 | 62 | 214 | 2.0 | 7.0 | 0.01 | 0.01 | 0.01 | 80 | 1004.9 |
| 20260902203030 | 63 | 187 | 4.0 | 10.0 | 0.00 | 0.00 | 0.00 | 77 | 1004.9 |
| 20260902201530 | 64 | 223 | 9.0 | 25.0 | 0.00 | 0.00 | 0.00 | 74 | 1005.0 |
| 20260902200029 | 64 | 205 | 4.0 | 9.0 | 0.00 | 0.00 | 0.00 | 78 | 1005.1 |
| 20260902194525 | 63 | 288 | 4.0 | 11.0 | 0.00 | 0.00 | 0.00 | 80 | 1005.2 |
| 20260902193026 | 63 | 219 | 3.0 | 12.0 | 0.00 | 0.00 | 0.00 | 81 | 1005.4 |
| 20260902191525 | 64 | 226 | 4.0 | 13.0 | 0.00 | 0.00 | 0.00 | 77 | 1005.6 |
| 20260902190038 | 67 | 201 | 7.0 | 24.0 | 0.00 | 0.00 | 0.00 | 65 | 1005.6 |
| 20260902184521 | 68 | 204 | 7.0 | 16.0 | 0.00 | 0.00 | 0.00 | 60 | 1005.3 |
| 20260902183019 | 67 | 223 | 3.0 | 11.0 | 0.00 | 0.00 | 0.00 | 64 | 1005.4 |
| 20260902181515 | 65 | 125 | 5.0 | 12.0 | 0.00 | 0.00 | 0.00 | 69 | 1005.5 |
| 20260902180017 | 63 | 155 | 1.0 | 6.0 | 0.00 | 0.00 | 0.00 | 74 | 1005.7 |
| 20260902174512 | 63 | 176 | 2.0 | 5.0 | 0.00 | 0.00 | 0.00 | 76 | 1005.8 |
| 20260902173008 | 62 | 165 | 1.0 | 5.0 | 0.00 | 0.00 | 0.00 | 79 | 1006.0 |
| 20260902171504 | 62 | 144 | 1.0 | 8.0 | 0.00 | 0.00 | 0.00 | 84 | 1006.2 |
| 20260902170002 | 62 | 200 | 0.0 | 3.0 | 0.00 | 0.00 | 0.00 | 83 | 1006.3 |
| 20260902164603 | 62 | 200 | 1.0 | 2.0 | 0.00 | 0.00 | 0.00 | 83 | 1006.4 |
| 20260902163058 | 61 | 200 | 0.0 | 2.0 | 0.00 | 0.00 | 0.00 | 83 | 1006.6 |
| 20260902161557 | 62 | 199 | 1.0 | 2.0 | 0.00 | 0.00 | 0.00 | 82 | 1006.6 |
| 20260902160055 | 61 | 187 | 1.0 | 4.0 | 0.00 | 0.00 | 0.00 | 82 | 1006.8 |
| 20260902154553 | 61 | 151 | 0.0 | 3.0 | 0.00 | 0.00 | 0.00 | 85 | 1007.0 |
| 20260902153053 | 60 | 150 | 0.0 | 5.0 | 0.00 | 0.00 | 0.00 | 87 | 1007.1 |
| 20260902151551 | 59 | 165 | 4.0 | 6.0 | 0.00 | 0.00 | 0.00 | 88 | 1007.1 |
| 20260902150049 | 58 | 131 | 0.0 | 3.0 | 0.00 | 0.00 | 0.00 | 90 | 1007.4 |
| 20260902144546 | 58 | 130 | 1.0 | 3.0 | 0.00 | 0.00 | 0.00 | 89 | 1007.7 |
| 20260902143044 | 57 | 130 | 0.0 | 1.0 | 0.00 | 0.00 | 0.00 | 88 | 1007.9 |
| 20260902141549 | 57 | 130 | 1.0 | 5.0 | 0.00 | 0.00 | 0.00 | 88 | 1008.0 |
| 20260902140043 | 57 | 157 | 2.0 | 5.0 | 0.00 | 0.00 | 0.00 | 88 | 1008.0 |
| 20260902134545 | 57 | 178 | 2.0 | 4.0 | 0.00 | 0.00 | 0.00 | 88 | 1008.0 |
| 20260902133042 | 57 | 181 | 2.0 | 10.0 | 0.00 | 0.00 | 0.00 | 89 | 1008.0 |
| 20260902131541 | 57 | 148 | 3.0 | 7.0 | 0.00 | 0.00 | 0.00 | 88 | 1007.9 |
| 20260902130039 | 57 | 149 | 3.0 | 6.0 | 0.00 | 0.00 | 0.00 | 88 | 1008.3 |
| 20260902124535 | 58 | 171 | 3.0 | 4.0 | 0.00 | 0.00 | 0.00 | 87 | 1008.3 |
| 20260902123033 | 58 | 175 | 2.0 | 4.0 | 0.00 | 0.00 | 0.00 | 87 | 1008.4 |
| 20260902121531 | 58 | 192 | 1.0 | 2.0 | 0.00 | 0.00 | 0.00 | 87 | 1008.5 |
| 20260902120029 | 59 | 190 | 1.0 | 3.0 | 0.00 | 0.00 | 0.00 | 87 | 1008.6 |
| 20260902114529 | 59 | 184 | 1.0 | 2.0 | 0.00 | 0.00 | 0.00 | 86 | 1008.7 |
| 20260902113031 | 59 | 184 | 0.0 | 2.0 | 0.00 | 0.00 | 0.00 | 86 | 1008.8 |
| 20260902111526 | 59 | 184 | 0.0 | 0.0 | 0.00 | 0.00 | 0.00 | 85 | 1008.8 |
| 20260902110026 | 60 | 184 | 1.0 | 4.0 | 0.00 | 0.00 | 0.00 | 85 | 1009.0 |
| 20260902104532 | 60 | 198 | 2.0 | 6.0 | 0.00 | 0.00 | 0.00 | 86 | 1009.1 |
| 20260902103023 | 59 | 189 | 2.0 | 8.0 | 0.00 | 0.00 | 0.00 | 87 | 1009.2 |
| 20260902101521 | 59 | 178 | 4.0 | 8.0 | 0.00 | 0.00 | 0.00 | 88 | 1009.3 |
| 20260902100020 | 59 | 203 | 3.0 | 6.0 | 0.00 | 0.00 | 0.00 | 89 | 1009.4 |
| 20260902094520 | 59 | 167 | 3.0 | 6.0 | 0.00 | 0.00 | 0.00 | 89 | 1009.4 |
| 20260902093017 | 59 | 167 | 2.0 | 5.0 | 0.00 | 0.00 | 0.00 | 89 | 1009.4 |
| 20260902091515 | 60 | 189 | 2.0 | 4.0 | 0.00 | 0.00 | 0.00 | 89 | 1009.5 |
| 20260902090014 | 60 | 188 | 2.0 | 4.0 | 0.00 | 0.00 | 0.00 | 89 | 1009.6 |
| 20260902084517 | 60 | 187 | 1.0 | 6.0 | 0.00 | 0.00 | 0.00 | 89 | 1009.8 |
| 20260902083014 | 61 | 199 | 1.0 | 4.0 | 0.00 | 0.00 | 0.00 | 89 | 1010.0 |
| 20260902081508 | 61 | 195 | 2.0 | 6.0 | 0.00 | 0.00 | 0.00 | 88 | 1010.1 |
| 20260902080009 | 61 | 173 | 4.0 | 6.0 | 0.00 | 0.00 | 0.00 | 87 | 1010.1 |
| 20260902074506 | 61 | 159 | 2.0 | 6.0 | 0.00 | 0.00 | 0.00 | 87 | 1010.2 |
| 20260902073005 | 61 | 161 | 3.0 | 7.0 | 0.00 | 0.00 | 0.00 | 86 | 1010.2 |
| 20260902071503 | 61 | 155 | 4.0 | 7.0 | 0.00 | 0.00 | 0.00 | 86 | 1010.3 |
| 20260902070002 | 61 | 163 | 3.0 | 7.0 | 0.00 | 0.00 | 0.00 | 85 | 1010.3 |
| 20260902064502 | 61 | 175 | 2.0 | 7.0 | 0.00 | 0.00 | 0.00 | 86 | 1010.3 |
| 20260902063116 | 61 | 204 | 1.0 | 5.0 | 0.00 | 0.00 | 0.00 | 87 | 1010.4 |
| 20260902061600 | 61 | 188 | 1.0 | 4.0 | 0.00 | 0.00 | 0.00 | 88 | 1010.4 |
| 20260902060117 | 61 | 188 | 2.0 | 4.0 | 0.00 | 0.00 | 0.00 | 88 | 1010.5 |
| 20260902054609 | 61 | 177 | 1.0 | 5.0 | 0.00 | 0.00 | 0.00 | 88 | 1010.6 |
| 20260902053059 | 61 | 215 | 1.0 | 3.0 | 0.00 | 0.00 | 0.00 | 88 | 1010.7 |
| 20260902051600 | 61 | 215 | 1.0 | 5.0 | 0.00 | 0.00 | 0.00 | 88 | 1010.8 |
| 20260902050057 | 61 | 235 | 2.0 | 8.0 | 0.00 | 0.00 | 0.00 | 88 | 1010.8 |
| 20260902044558 | 61 | 228 | 3.0 | 6.0 | 0.00 | 0.00 | 0.00 | 89 | 1010.8 |
| 20260902043109 | 61 | 227 | 1.0 | 5.0 | 0.00 | 0.00 | 0.00 | 88 | 1010.9 |
| 20260902041605 | 61 | 200 | 4.0 | 7.0 | 0.00 | 0.00 | 0.00 | 88 | 1010.8 |
| 20260902040057 | 61 | 169 | 4.0 | 7.0 | 0.00 | 0.00 | 0.00 | 89 | 1010.8 |
| 20260902034604 | 61 | 165 | 4.0 | 6.0 | 0.00 | 0.00 | 0.00 | 90 | 1010.8 |